Time,TemperatureF,DewpointF,PressureIn,WindDirection,WindDirectionDegrees,WindSpeedMPH,WindSpeedGustMPH,Humidity,HourlyPrecipIn,Conditions,Clouds,dailyrainin,SoftwareType,DateUTC
2013-01-09 00:06:00,36.2,34.0,30.36,SW,223,0.0,3.0,92,0.00,,,0.00,weatherlink.com 1.10,2013-01-09 05:06:00,
2013-01-09 10:48:00,37.3,36.0,30.35,SW,223,0.0,4.0,94,0.00,,,0.01,weatherlink.com 1.10,2013-01-09 15:48:00,
2013-01-09 10:51:00,37.5,36.0,30.35,SW,223,0.0,2.0,94,0.00,,,0.01,weatherlink.com 1.10,2013-01-09 15:51:00,
2013-01-09 11:06:00,38.3,36.0,30.33,SW,223,1.0,3.0,92,0.00,,,0.01,weatherlink.com 1.10,2013-01-09 16:06:00,
2013-01-09 11:21:00,38.6,36.0,30.32,SW,223,3.0,4.0,91,0.00,,,0.01,weatherlink.com 1.10,2013-01-09 16:21:00,
2013-01-09 11:36:00,38.7,36.0,30.31,SW,223,2.0,4.0,91,0.00,,,0.01,weatherlink.com 1.10,2013-01-09 16:36:00,
2013-01-09 11:51:00,39.1,37.0,30.30,SSW,196,2.0,4.0,90,0.00,,,0.01,weatherlink.com 1.10,2013-01-09 16:51:00,
2013-01-09 12:06:00,39.1,37.0,30.29,SSW,203,2.0,4.0,90,0.00,,,0.01,weatherlink.com 1.10,2013-01-09 17:06:00,
2013-01-09 12:22:00,39.5,37.0,30.26,SW,217,2.0,4.0,91,0.00,,,0.01,weatherlink.com 1.10,2013-01-09 17:22:00,
2013-01-09 12:37:00,40.1,38.0,30.23,SW,217,3.0,3.0,91,0.00,,,0.01,weatherlink.com 1.10,2013-01-09 17:37:00,
2013-01-09 12:52:00,41.1,39.0,30.22,SSW,200,3.0,6.0,92,0.00,,,0.01,weatherlink.com 1.10,2013-01-09 17:52:00,
2013-01-09 13:07:00,42.1,39.0,30.21,SSW,210,3.0,8.0,89,0.00,,,0.01,weatherlink.com 1.10,2013-01-09 18:07:00,
2013-01-09 13:22:00,42.7,39.0,30.21,SW,220,4.0,9.0,87,0.00,,,0.00,weatherlink.com 1.10,2013-01-09 18:22:00,
2013-01-09 13:37:00,42.9,39.0,30.20,South,179,6.0,7.0,87,0.00,,,0.00,weatherlink.com 1.10,2013-01-09 18:37:00,
2013-01-09 13:52:00,43.4,40.0,30.21,SW,228,5.0,9.0,87,0.00,,,0.00,weatherlink.com 1.10,2013-01-09 18:52:00,
2013-01-09 14:07:00,43.4,40.0,30.22,SW,227,3.0,6.0,87,0.00,,,0.00,weatherlink.com 1.10,2013-01-09 19:07:00,
2013-01-09 14:22:00,43.0,39.0,30.22,South,191,5.0,8.0,87,0.00,,,0.00,weatherlink.com 1.10,2013-01-09 19:22:00,
2013-01-09 14:37:00,41.0,38.0,30.22,SSW,206,4.0,7.0,89,0.00,,,0.00,weatherlink.com 1.10,2013-01-09 19:37:00,
2013-01-09 14:52:00,40.8,39.0,30.20,SW,234,8.0,9.0,92,0.00,,,0.00,weatherlink.com 1.10,2013-01-09 19:52:00,
2013-01-09 15:07:00,41.9,40.0,30.18,SSW,207,3.0,6.0,91,0.00,,,0.00,weatherlink.com 1.10,2013-01-09 20:07:00,
2013-01-09 15:22:00,42.5,40.0,30.16,South,190,9.0,10.0,92,0.00,,,0.00,weatherlink.com 1.10,2013-01-09 20:22:00,
2013-01-09 15:37:00,42.9,41.0,30.16,SSW,206,7.0,13.0,92,0.00,,,0.00,weatherlink.com 1.10,2013-01-09 20:37:00,
2013-01-09 15:52:00,42.7,41.0,30.16,SSW,197,4.0,9.0,92,0.00,,,0.00,weatherlink.com 1.10,2013-01-09 20:52:00,
2013-01-09 16:07:00,42.5,40.0,30.16,SSW,205,3.0,7.0,92,0.00,,,0.00,weatherlink.com 1.10,2013-01-09 21:07:00,
2013-01-09 16:22:00,42.6,41.0,30.14,South,191,8.0,10.0,92,0.00,,,0.00,weatherlink.com 1.10,2013-01-09 21:22:00,
2013-01-09 16:52:00,43.8,41.0,30.09,South,185,11.0,12.0,90,0.00,,,0.00,weatherlink.com 1.10,2013-01-09 21:52:00,
2013-01-09 17:07:00,44.8,41.0,30.06,South,180,11.0,16.0,87,0.00,,,0.00,weatherlink.com 1.10,2013-01-09 22:07:00,
2013-01-09 17:23:00,46.3,42.0,30.02,South,173,9.0,19.0,84,0.00,,,0.00,weatherlink.com 1.10,2013-01-09 22:23:00,
2013-01-09 17:39:00,46.5,42.0,30.03,SSW,211,10.0,18.0,84,0.00,,,0.00,weatherlink.com 1.10,2013-01-09 22:39:00,
2013-01-09 17:53:00,44.3,40.0,30.07,SSW,206,9.0,15.0,86,0.00,,,0.00,weatherlink.com 1.10,2013-01-09 22:53:00,
2013-01-09 18:08:00,43.2,41.0,30.07,WSW,240,7.0,16.0,91,0.00,,,0.00,weatherlink.com 1.10,2013-01-09 23:08:00,
2013-01-09 18:23:00,43.3,41.0,30.06,SSW,207,7.0,14.0,91,0.00,,,0.00,weatherlink.com 1.10,2013-01-09 23:23:00,
2013-01-09 18:38:00,43.5,41.0,30.06,SSW,204,7.0,16.0,89,0.00,,,0.00,weatherlink.com 1.10,2013-01-09 23:38:00,
2013-01-09 18:53:00,43.0,40.0,30.06,SSW,209,5.0,14.0,89,0.00,,,0.00,weatherlink.com 1.10,2013-01-09 23:53:00,
2013-01-09 19:08:00,42.0,40.0,30.06,SSW,211,8.0,12.0,91,0.00,,,0.00,weatherlink.com 1.10,2013-01-10 00:08:00,
2013-01-09 19:23:00,42.4,41.0,30.06,SSW,212,9.0,14.0,93,0.00,,,0.00,weatherlink.com 1.10,2013-01-10 00:23:00,
2013-01-09 19:38:00,43.1,41.0,30.05,SSW,198,12.0,14.0,92,0.00,,,0.00,weatherlink.com 1.10,2013-01-10 00:38:00,
2013-01-09 19:53:00,42.2,40.0,30.06,SW,234,6.0,14.0,92,0.00,,,0.00,weatherlink.com 1.10,2013-01-10 00:53:00,
2013-01-09 20:08:00,41.7,40.0,30.05,SSW,209,10.0,16.0,93,0.00,,,0.00,weatherlink.com 1.10,2013-01-10 01:08:00,
2013-01-09 20:23:00,41.8,40.0,30.05,SW,229,4.0,14.0,92,0.00,,,0.00,weatherlink.com 1.10,2013-01-10 01:23:00,
2013-01-09 20:38:00,44.7,41.0,30.04,SSW,211,6.0,15.0,86,0.00,,,0.00,weatherlink.com 1.10,2013-01-10 01:38:00,
2013-01-09 20:53:00,45.8,41.0,30.05,WSW,254,8.0,17.0,82,0.00,,,0.00,weatherlink.com 1.10,2013-01-10 01:53:00,
2013-01-09 21:08:00,46.0,41.0,30.04,WSW,244,8.0,18.0,81,0.00,,,0.00,weatherlink.com 1.10,2013-01-10 02:08:00,
2013-01-09 21:23:00,45.6,40.0,30.05,WSW,237,5.0,14.0,80,0.00,,,0.00,weatherlink.com 1.10,2013-01-10 02:23:00,
2013-01-09 21:38:00,45.6,39.0,30.05,WSW,256,6.0,19.0,79,0.00,,,0.00,weatherlink.com 1.10,2013-01-10 02:38:00,
2013-01-09 21:53:00,45.6,39.0,30.04,West,269,9.0,15.0,78,0.00,,,0.00,weatherlink.com 1.10,2013-01-10 02:53:00,
2013-01-09 22:08:00,45.7,39.0,30.05,WSW,240,10.0,17.0,76,0.00,,,0.00,weatherlink.com 1.10,2013-01-10 03:08:00,
2013-01-09 22:23:00,45.8,39.0,30.05,WSW,249,2.0,17.0,76,0.00,,,0.00,weatherlink.com 1.10,2013-01-10 03:23:00,
2013-01-09 22:38:00,45.3,38.0,30.06,SW,219,11.0,12.0,76,0.00,,,0.00,weatherlink.com 1.10,2013-01-10 03:38:00,
2013-01-09 22:53:00,45.1,38.0,30.06,WNW,284,10.0,15.0,75,0.00,,,0.00,weatherlink.com 1.10,2013-01-10 03:53:00,
2013-01-09 23:08:00,44.8,37.0,30.06,West,267,9.0,12.0,75,0.00,,,0.00,weatherlink.com 1.10,2013-01-10 04:08:00,
2013-01-09 23:23:00,44.6,37.0,30.06,SW,226,12.0,12.0,75,0.00,,,0.00,weatherlink.com 1.10,2013-01-10 04:23:00,
2013-01-09 23:38:00,44.9,37.0,30.07,West,266,9.0,14.0,74,0.00,,,0.00,weatherlink.com 1.10,2013-01-10 04:38:00,
2013-01-09 23:53:00,45.0,37.0,30.08,West,277,9.0,14.0,73,0.00,,,0.00,weatherlink.com 1.10,2013-01-10 04:53:00,